Flag for U.S.A. Weather past 2 weeks in Fayetteville, North Carolina, U.S.A.

Now
29 °F

Sunny.


Feels Like: 23 °F
Forecast: 26 / 49 °F
Wind: 6 mph from North

Location: Fayetteville Regional Airport

Current Time: Jan 31, 2015 at 9:00:28 AM

Latest Report: Jan 31, 2015 at 7:53 AM


Visibility: 10 mi

Pressure: 30.34 "Hg

Humidity: 43%

Dew point: 9 °F

Location of FayettevilleLocation

Historic Weather in Fayetteville — Graph

°F

Fayetteville temperature yesterday

Maximum temperature yesterday: 51 °F (at 2:53 PM)
Minimum temperature yesterday: 33 °F (at 11:53 PM)
Average temperature yesterday: 45 °F

Past Weeks' High & Low Weather Summary

 TemperatureHumidityPressure
High66 °F (Jan 20, 2:53 PM)97% (Jan 16, 7:53 AM)30.37 "Hg (Jan 16, 7:53 AM)
Low22 °F (Jan 29, 5:53 AM)21% (Jan 19, 2:53 PM)29.52 "Hg (Jan 24, 6:53 AM)
Average44 °F63%30.01 "Hg
* Reported Jan 16 7:53 AM — Jan 31 7:53 AM, Fayetteville, Weather by CustomWeather, © 2014

Note: Actual official high and low records may vary slightly from our data, if they occured in-between our weather recording intervals... More about our weather records

Advertising

Fayetteville weather history for previous 24 hours

 ConditionsComfort  
Time TempWeatherWind HumidityBarometerVisibility
7:53 AM
Jan 31
29 °FSunny.6 mph43%30.34 "Hg10 mi
6:53 AM27 °FClear.8 mph46%30.33 "Hg10 mi
5:53 AM28 °FClear.8 mph45%30.31 "Hg10 mi
4:53 AM28 °FClear.9 mph45%30.31 "Hg10 mi
3:53 AM29 °FClear.8 mph43%30.31 "Hg10 mi
2:53 AM28 °FClear.6 mph45%30.32 "Hg10 mi
1:53 AM31 °FClear.7 mph38%30.30 "Hg10 mi
12:53 AM32 °FClear.9 mph36%30.30 "Hg10 mi
11:53 PM
Jan 30
33 °FClear.8 mph33%30.31 "Hg10 mi
10:53 PM35 °FClear.10 mph31%30.30 "Hg10 mi
9:53 PM37 °FClear.10 mph28%30.27 "Hg10 mi
8:53 PM39 °FClear.12 mph33%30.24 "Hg10 mi
7:53 PM42 °FClear.12 mph32%30.21 "Hg10 mi
6:53 PM44 °FClear.13 mph29%30.18 "Hg10 mi
5:53 PM46 °FClear.18 mph29%30.15 "Hg10 mi
4:53 PM49 °FSunny.20 mph25%30.12 "Hg10 mi
3:53 PM50 °FSunny.14 mph25%30.10 "Hg10 mi
2:53 PM51 °FSunny.16 mph25%30.09 "Hg10 mi
1:53 PM50 °FSunny.17 mph28%30.08 "Hg10 mi
12:53 PM49 °FSunny.17 mph32%30.09 "Hg10 mi
11:53 AM49 °FPassing clouds.16 mph35%30.09 "Hg10 mi
10:53 AM49 °FSunny.13 mph38%30.10 "Hg10 mi
9:53 AM48 °FSunny.25 mph41%30.07 "Hg10 mi
Weather by CustomWeather, © 2014

See weather overviewHow to use our weather pages